Location: Noordwijk
(52.2400°N, 4.4500°E)
Time: 03:36:29
(UTC+00:00)

PCSat - Pass Details

Date: 15 December 2022
Orbit: 785 x 793 km, 67.0° (Epoch: 28 January)

Event Time Altitude Azimuth Distance (km) Brightness Sun altitude
Rises 19:04:34 0° 270° (W) 3,286 13.9 -31.4°
Reaches altitude 10° 19:07:29 10° 285° (WNW) 2,360 12.9 -31.9°
Maximum altitude 19:11:45 23° 337° (NNW) 1,645 11.4 -32.5°
Enters shadow 19:11:54 23° 340° (NNW) 1,646 11.4 -32.5°
